EW6655 Weather Reports


time (UTC)temp
C
wind
direction
speed
KPH
gust
KPH
rain 1hr
cm
rain 24hr
cm
rain mn
cm
humidity
%
barometer
mb
20260902123103 17 309 3.2 8.0 0.00 0.00 0.00 62 1020.9
20260902121600 17 233 3.2 9.7 0.00 0.00 0.00 64 1021.1
20260902120100 17 5 3.2 16.1 0.00 0.00 0.00 61 1021.2
20260902114555 17 272 3.2 12.9 0.00 0.00 0.00 60 1021.0
20260902113052 17 244 4.8 12.9 0.00 0.00 0.00 62 1021.0
20260902111551 17 236 1.6 12.9 0.00 0.00 0.00 62 1021.0
20260902110049 17 314 1.6 9.7 0.00 0.00 0.00 65 1021.0
20260902104612 17 278 3.2 12.9 0.00 0.00 0.00 67 1021.2
20260902103044 16 325 4.8 16.1 0.00 0.00 0.00 67 1021.2
20260902101542 16 276 3.2 11.3 0.00 0.00 0.00 68 1021.2
20260902100140 16 355 1.6 12.9 0.00 0.00 0.00 69 1021.1
20260902094539 16 233 4.8 17.7 0.00 0.00 0.00 70 1021.1
20260902093036 16 277 4.8 17.7 0.00 0.00 0.00 71 1021.1
20260902091533 15 333 6.4 19.3 0.00 0.00 0.00 73 1021.1
20260902090029 14 173 6.4 19.3 0.00 0.00 0.00 77 1021.0
20260902084527 13 281 6.4 16.1 0.00 0.00 0.00 77 1021.0
20260902083025 13 248 6.4 17.7 0.00 0.00 0.00 80 1020.9
20260902081524 13 248 4.8 14.5 0.00 0.00 0.00 81 1020.8
20260902080023 13 266 8.0 17.7 0.00 0.00 0.00 82 1020.5
20260902074518 13 236 3.2 11.3 0.00 0.00 0.00 85 1020.6
20260902073016 13 245 1.6 6.4 0.00 0.00 0.00 86 1020.4
20260902071524 12 227 3.2 8.0 0.00 0.00 0.00 87 1020.5
20260902070013 12 254 4.8 8.0 0.00 0.00 0.00 88 1020.5
20260902064514 11 266 3.2 9.7 0.00 0.00 0.00 89 1020.4
20260902063012 11 199 1.6 4.8 0.00 0.00 0.00 90 1020.3
20260902061511 11 199 0.0 3.2 0.00 0.00 0.00 91 1020.3
20260902060011 11 199 0.0 4.8 0.00 0.00 0.00 91 1020.3
20260902054510 10 199 0.0 4.8 0.00 0.00 0.00 91 1020.3
20260902053009 10 199 0.0 1.6 0.00 0.00 0.00 90 1020.1
20260902051510 11 199 1.6 6.4 0.00 0.00 0.00 91 1019.8
20260902050009 10 205 1.6 3.2 0.00 0.00 0.00 91 1019.7
20260902044517 11 205 0.0 3.2 0.00 0.00 0.00 90 1019.7
20260902043007 11 205 0.0 4.8 0.00 0.00 0.00 90 1019.7
20260902041507 11 205 0.0 3.2 0.00 0.00 0.00 90 1019.7
20260902040005 11 205 0.0 4.8 0.00 0.00 0.00 90 1019.9
20260902034504 11 184 0.0 3.2 0.00 0.00 0.00 90 1019.9
20260902033004 10 244 1.6 4.8 0.00 0.00 0.00 91 1020.0
20260902031505 10 244 0.0 4.8 0.00 0.00 0.00 91 1019.9
20260902030004 10 244 0.0 0.0 0.00 0.00 0.00 91 1019.9
20260902024501 10 244 1.6 3.2 0.00 0.00 0.00 91 1019.9
20260902023101 10 244 1.6 3.2 0.00 0.00 0.00 90 1020.0
20260902021601 10 244 1.6 4.8 0.00 0.00 0.00 90 1020.1
20260902020133 10 244 1.6 4.8 0.00 0.00 0.00 91 1020.3
20260902014603 10 244 0.0 3.2 0.00 0.00 0.00 91 1020.4
20260902013101 10 244 0.0 0.0 0.00 0.00 0.00 90 1020.2
20260902011557 10 244 0.0 3.2 0.00 0.00 0.00 90 1020.0
20260902010055 11 244 1.6 4.8 0.00 0.00 0.00 90 1020.3
20260902004554 11 244 0.0 0.0 0.00 0.00 0.00 90 1020.4
20260902003056 11 244 0.0 3.2 0.00 0.00 0.00 91 1020.4
20260902001551 11 244 0.0 0.0 0.00 0.00 0.00 91 1020.3
20260902000050 11 244 0.0 0.0 0.00 0.00 0.00 91 1020.1
20260901234603 11 244 0.0 0.0 0.00 0.00 0.00 91 1020.3
20260901233053 11 244 0.0 0.0 0.00 0.00 0.00 91 1020.2
20260901231545 11 244 0.0 0.0 0.00 0.00 0.00 91 1020.3
20260901230050 11 244 0.0 0.0 0.00 0.00 0.00 91 1020.3
20260901224545 11 244 0.0 0.0 0.00 0.00 0.00 90 1020.5
20260901223039 12 244 0.0 0.0 0.00 0.00 0.00 90 1020.6
20260901221602 12 244 0.0 0.0 0.00 0.00 0.00 90 1020.8
20260901220035 12 244 0.0 3.2 0.00 0.00 0.00 89 1020.7
20260901214534 12 244 0.0 3.2 0.00 0.00 0.00 90 1020.7
20260901213038 12 244 0.0 1.6 0.00 0.00 0.00 90 1020.6
20260901211537 12 244 0.0 1.6 0.00 0.00 0.00 89 1020.7
20260901210035 13 244 0.0 3.2 0.00 0.00 0.00 89 1020.6
20260901204535 13 244 0.0 3.2 0.00 0.00 0.00 89 1020.5
20260901203046 13 244 0.0 1.6 0.00 0.00 0.00 89 1020.5
20260901201543 13 244 0.0 0.0 0.00 0.00 0.00 88 1020.6
20260901200032 13 244 0.0 1.6 0.00 0.00 0.00 88 1020.5
20260901194529 13 244 0.0 0.0 0.00 0.00 0.00 86 1020.5
20260901193029 13 244 0.0 0.0 0.00 0.00 0.00 85 1020.5
20260901191528 14 244 0.0 0.0 0.00 0.00 0.00 83 1020.5
20260901190033 15 244 0.0 0.0 0.00 0.00 0.00 83 1020.4
20260901184526 15 244 0.0 0.0 0.00 0.03 0.00 82 1020.3
20260901183026 15 244 0.0 1.6 0.00 0.03 0.00 81 1020.3
20260901181526 16 244 0.0 1.6 0.00 0.03 0.00 80 1020.3
20260901180026 16 244 0.0 1.6 0.00 0.03 0.00 78 1020.2
20260901174526 16 244 0.0 0.0 0.00 0.05 0.00 76 1020.1
20260901173024 17 244 0.0 3.2 0.00 0.05 0.00 75 1020.2
20260901171524 17 340 0.0 4.8 0.00 0.05 0.00 73 1020.1
20260901170024 17 276 1.6 4.8 0.00 0.05 0.00 72 1020.0
20260901164524 18 254 0.0 4.8 0.00 0.05 0.00 72 1020.1
20260901163024 18 244 0.0 8.0 0.00 0.05 0.00 71 1020.0
20260901161534 18 5 1.6 8.0 0.00 0.05 0.00 70 1020.0
20260901160036 18 296 1.6 12.9 0.00 0.05 0.00 70 1020.0
20260901154523 19 24 1.6 16.1 0.00 0.08 0.00 67 1020.0
20260901153019 18 268 3.2 14.5 0.00 0.08 0.00 67 1020.1
20260901151516 18 232 3.2 16.1 0.00 0.08 0.00 69 1020.1
20260901150015 18 239 3.2 17.7 0.00 0.08 0.00 70 1020.0
20260901144514 18 269 4.8 12.9 0.00 0.10 0.00 71 1020.0
20260901143014 17 351 4.8 12.9 0.00 0.10 0.00 73 1020.1
20260901141512 18 311 3.2 9.7 0.00 0.10 0.00 72 1020.1
20260901140012 18 333 3.2 11.3 0.00 0.10 0.00 71 1020.2
20260901134513 18 244 1.6 8.0 0.00 0.20 0.00 72 1020.1
20260901133010 17 240 6.4 19.3 0.00 0.20 0.00 69 1020.2
20260901131513 17 281 1.6 12.9 0.00 0.20 0.00 74 1020.2
20260901130010 17 250 1.6 9.7 0.00 0.20 0.00 78 1020.5
20260901124509 16 223 3.2 8.0 0.00 0.20 0.00 81 1020.5